星链-1471 (STARLINK-1471 )

导读 | 豆包AI

STARLINK-1471是美国SpaceX公司星链星座的低轨互联网通信卫星,于2020年6月13日发射升空,隶属于星链星座的第9批任务星链卫星。它运行在近地轨道,依托星链星座的大规模组网能力,为全球提供高速低延迟互联网服务,尤其可为偏远地区、海洋、航空等场景提供网络连接,推动全球互联网覆盖的普及,是星链星座全球卫星互联网布局的重要组成部分。

基本信息
目录编号:
45735
目录名称:
STARLINK-1471
国际标识:
2020-038F
轨道中心:
EARTH
卫星名称:
星链-1471
卫星全名:
星链-1471 (STARLINK-1471 )
卫星状态:
在轨 (已飞行2100 天)
发射日期:
2020-06-13 UTC
国别 :
美国 (US)
星等 :
--
轨道信息
数据来源 国际轨道数据
星历时间: 2026-03-14T04:09:46+0800
14小时前
查看轨道信息
半长轴: 6797.398km
偏心率: 0.0000814
轨道倾角: 53.046°
近地点辐角 307.344°
升交点赤经 122.136°
平近点角 52.750°
近地点: 418.707km
远地点: 419.815km
周期: 92.955分钟
每日圈数: 15.491332
详细信息
固有亮度:
5
最大亮度:
2.5
卫星平台:
Starlink V1.0
覆盖范围:
全球
运营商:
太空探索技术公司
运营商所在国:
美国
制造商(研发单位):
太空探索技术公司
制造商所在国:
美国
使用方式:
暂无
卫星简介
星链(Starlink)计划是由太空探索技术公司(SpaceX)提出的一个巨型低轨卫星互联网星座项目,计划在2019年至2024年间在太空搭建由约1.2万颗卫星组成的“星链”网络,其中1584颗将部署在地球上空550千米处的近地轨道,并从2020年开始工作。该卫星仍在工作。
2D轨道图
3D轨道图
轨道高度分析图
轨道倾角分析图
轨道综合分析图
查看轨道综合分析图